Weather in Bekovo

Russia / Kemerovo Oblast     54°21′59″N   86°11′31″E
temp.,
°C
wind,
m/s
gust,
m/s
humid.,
%
clouds,
%
prec.,
mm/h
press.,
hPa
HPBL,
m
17 may, mon
mon1701:00+13wsw2594100 3.6 1012157
04:00+13w2595100 1.6 1011313
07:00+13nnw2496100 2.0 1012297
10:00+14nnw3481100 0.1 1014431
13:00+18nnw336238 0.1 10131084
16:00+20nnw5648100 0.1 10131872
19:00+18n455583 0.1 1014935
22:00+15ssw116799 0.0 101511
18 may, tue
tue1801:00+13ssw3375100 0.0 101354
04:00+13sw51284100 0.5 1012402
07:00+14sw61580100 1.0 1008495
10:00+17sw111971100 1.0 1004807
13:00+24w1019458 1.0 10022505
16:00+20nw1114485 0.0 10051653
19:00+17n4964100 0.0 1006664
22:00+13ene247871 0.2 1007125
19 may, wed
wed1901:00+11se3492100 1.3 100691
04:00+11ne0196100 2.8 100316
07:00+11nnw4597100 3.4 1003504
10:00+8nnw5792100 0.2 1005582
13:00+9n61074100 0.3 10061109
16:00+11n795081 0.1 10071518
19:00+11n684429 0.1 10081981
22:00+7n6115291 0.0 1010624
20 may, thu
thu2001:00+4nnw4115580 0.0 1011411
04:00+3nnw3855100 0.0 1011340
07:00+3nw365793 0.0 1012359
10:00+6nnw6649100 0.1 10131650
13:00+6nnw6742100 0.5 10142154
16:00+7nnw7733100 0.0 10152713
19:00+6nnw794928 0.1 10171723
22:00+3nw368286 0.1 1019216
21 may, fri
fri2101:00+3w39768 0.3 1020249
04:000wsw23748 0.0 102142
07:00+3sw2359100 0.0 1023114
10:00+9wsw4635100 0.0 10211612
13:00+9sw6734100 0.0 10211946
16:00+11sw7937100 0.0 10201900
19:00+8ssw61055100 0.0 10181298
22:00+5s51183100 0.1 1017734